This is the latest recevied weather packets stored in our database for station/object N5VIS. If no packets are shown the sender has not sent any weather packets the latest 10 day(s).
| Time | Temp. | Humidity | Pressure | Rain* | Wind** | Luminosity | Snow |
|---|---|---|---|---|---|---|---|
| 1777711540 | 13.89° C | 99% | 1011.1 hPa | 10.67 mm | - | - | - |
| 1777711240 | 13.89° C | 99% | 1011.6 hPa | 13.72 mm | - | - | - |
| 1777710937 | 13.89° C | 99% | 1012.2 hPa | 11.94 mm | - | - | - |
| 1777710634 | 13.89° C | 99% | 1012.4 hPa | 13.72 mm | - | - | - |
| 1777710331 | 13.89° C | 99% | 1012 hPa | 14.99 mm | - | - | - |
| 1777710029 | 13.89° C | 99% | 1010.8 hPa | 7.87 mm | - | - | - |
| 1777709726 | 13.89° C | 99% | 1011.4 hPa | 3.05 mm | - | - | - |
| 1777709422 | 13.89° C | 99% | 1009.4 hPa | 4.32 mm | - | - | - |
| 1777709120 | 13.89° C | 99% | 1008.8 hPa | 3.05 mm | - | - | - |
| 1777708818 | 13.89° C | 99% | 1009.1 hPa | 1.78 mm | - | - | - |
| 1777708515 | 13.89° C | 99% | 1009.4 hPa | 1.78 mm | - | - | - |
| 1777708213 | 13.89° C | 99% | 1009.4 hPa | 1.78 mm | - | - | - |
| 1777707911 | 13.89° C | 99% | 1009.8 hPa | 0 mm | - | - | - |
| 1777707606 | 13.33° C | 99% | 1009.8 hPa | 0 mm | - | - | - |
| 1777707303 | 13.33° C | 99% | 1009.4 hPa | 0 mm | - | - | - |
| 1777707000 | 13.33° C | 99% | 1009.2 hPa | 1.27 mm | - | - | - |
| 1777706697 | 13.33° C | 99% | 1009.4 hPa | 3.05 mm | - | - | - |
| 1777706395 | 13.33° C | 99% | 1010.2 hPa | 3.05 mm | - | - | - |
| 1777706093 | 13.33° C | 99% | 1011.2 hPa | 6.1 mm | - | - | - |
| 1777705790 | 13.33° C | 99% | 1011.2 hPa | 7.87 mm | - | - | - |
| 1777705489 | 13.33° C | 99% | 1010.9 hPa | 6.1 mm | - | - | - |
| 1777705187 | 13.89° C | 99% | 1011.7 hPa | 6.1 mm | - | - | - |
| 1777704885 | 13.33° C | 99% | 1011 hPa | 3.05 mm | - | - | - |
| 1777704582 | 13.33° C | 99% | 1011.5 hPa | 1.78 mm | - | - | - |
| 1777704281 | 13.33° C | 99% | 1011.3 hPa | 3.05 mm | - | - | - |
* Rain latest hour (hover to see other rain measurements)
** Current wind speed in m/s (hover to see current wind gust speed)